User: anonymous   Login
Location: Unspecified
(0.0000°N, 0.0000°E)
Time: 01:13:39
(UTC+00:00)
Language:

Magion-2 - Orbit

View from above orbital plane
View from above orbital plane
View from above satellite
View from above satellite

Ground track
Ground track

The orbit data is extracted from the following two-line orbital elements,

1 20281U 89080B   18200.26072591 -.00000033  00000-0 -15430-4 0  9996
2 20281  82.6044  94.8446 1190639 187.4954 170.6851 12.58828865317698
Epoch (UTC): 19 July 2018 06:15:26
Eccentricity: 0.1190639
inclination: 82.6044°
perigee height: 498 km
apogee height: 2357 km
right ascension of ascending node: 94.8446°
argument of perigee: 187.4954°
revolutions per day: 12.58828865
mean anomaly at epoch: 170.6851°
orbit number at epoch: 31769

The dashed part of the orbit path shows where the satellite is in the earth's shadow,  

DLR